[[{"header":{"parameterUnit":"m.s-1","parameterCategory":1,"la1":30.2991,"la2":30.254,"lo1":-89.0895,"lo2":-89.0444,"dy":0.0017,"dx":0.0017,"nx":28,"ny":28,"refTime":"2024-10-13T03:00:00:Z","depth":0,"parameterNumber":2,"parameterNumberName":"U-component_of_WINDS"},"data":[0,0,0,0,0,0,0,0,0,0,0,0,0,0,0,0,0,0,0,0,0,0,0,0,0,0,0,0,0,0,0,0,0,0,0,0,0,0,0,0,0,0,0,0,0,0,0,0,0,0,0,0,0,0,0,0,0,0,1.7992,1.7992,0,1.8038,1.8038,1.8039,1.8052,1.8051,1.8051,1.8051,1.81,1.8101,1.8103,0,0,0,0,0,0,0,0,0,0,0,0,0,1.7916,1.7917,1.7992,1.7992,1.7993,1.8038,1.8039,1.8039,1.8052,1.8051,1.8051,1.8051,1.8099,1.8101,1.8103,0,0,0,0,0,0,0,0,0,0,0,0,0,1.7954,1.7918,1.7992,1.8004,1.8006,1.8038,1.8039,1.8039,1.8052,1.8051,1.8051,1.805,1.8098,1.8101,1.8103,1.8126,0,0,1.811,1.8111,0,0,0,0,0,0,0,0,1.7952,1.7957,1.8002,1.8004,1.8006,1.8039,1.803,1.8068,1.8052,1.8034,1.8051,1.805,1.808,1.8084,1.8093,1.8128,1.813,1.811,1.8112,1.8113,1.8113,0,0,0,0,0,0,0,1.7949,1.7955,1.801,1.8003,1.8005,1.8009,1.8013,1.8037,1.8059,1.8036,1.8037,1.8042,1.8081,1.8091,1.8094,1.8131,1.811,1.8112,1.8114,1.8115,1.8187,1.8187,0,0,0,0,0,0,1.7944,1.7953,1.8009,1.8011,1.7977,1.801,1.8016,1.8028,1.8059,1.8063,1.8042,1.8043,1.8087,1.8092,1.8096,1.8125,1.8113,1.8115,1.8116,1.8186,1.8187,1.8188,0,0,0,0,0,0,1.7943,1.7949,1.8007,1.7982,1.799,1.8012,1.8026,1.803,1.804,1.8064,1.8068,1.8049,1.8087,1.8093,1.8118,1.8127,1.8116,1.8118,1.8186,1.8187,1.8187,1.8182,0,0,0,0,0,0,1.794,1.7949,1.7957,1.7983,1.7991,1.8027,1.8027,1.8031,1.8044,1.8044,1.8071,1.8075,1.8087,1.8115,1.8121,1.813,1.812,1.8185,1.8186,1.8187,1.8182,1.8183,1.8184,0,0,0,0,0,1.7938,1.7954,1.7957,1.7964,1.8002,1.8028,1.8033,1.8047,1.8044,1.8053,1.8068,1.8074,1.8125,1.8117,1.8124,1.8134,1.8185,1.8186,1.8187,1.8181,1.8183,1.8184,0,0,0,0,0,0,1.7929,1.7957,1.7961,1.7986,1.8005,1.803,1.8042,1.8047,1.8067,1.8067,1.8083,1.8089,1.8113,1.8126,1.8117,1.8158,1.8155,1.8158,1.8148,1.815,1.8151,1.8147,1.8122,0,0,0,0,0,1.793,1.7948,1.7972,1.7992,1.8001,1.8019,1.8031,1.804,1.806,1.8068,1.8085,1.8104,1.8125,1.8138,1.8158,1.8184,1.819,1.8194,1.8195,1.8196,1.8198,1.8213,1.8215,1.8192,1.8191,1.8191,0,0,1.7932,1.795,1.796,1.799,1.8006,1.8024,1.8026,1.8046,1.806,1.8071,1.8096,1.8109,1.8132,1.8158,1.817,1.8169,1.8206,1.8197,1.8198,1.8199,1.8214,1.8216,1.8218,1.8192,1.8192,1.8192,0,0,1.7946,1.7961,1.7979,1.7994,1.8017,1.803,1.8034,1.8059,1.8068,1.8093,1.8102,1.8119,1.8154,1.817,1.8183,1.8203,1.8209,1.8209,1.8214,1.8228,1.823,1.8232,1.8239,1.8242,1.8211,1.8211,1.8211,0,1.7946,1.7974,1.7988,1.8007,1.802,1.8031,1.805,1.8064,1.8092,1.8101,1.81,1.8144,1.816,1.819,1.8195,1.8205,1.8211,1.8206,1.8229,1.8231,1.8232,1.824,1.8242,1.8211,1.8211,1.8211,1.8211,0,1.7973,1.7992,1.8005,1.8031,1.8046,1.8065,1.8082,1.8095,1.8103,1.8116,1.8142,1.8162,1.8186,1.8194,1.8202,1.8225,1.8224,1.8225,1.8223,1.8234,1.8241,1.8244,1.8211,1.8211,1.8211,1.8211,0,0,1.7982,1.8016,1.8021,1.8033,1.8059,1.8075,1.8095,1.8118,1.813,1.8149,1.8166,1.8196,1.8198,1.8212,1.8222,1.8234,1.8249,1.8235,1.8235,1.8237,1.8277,1.8275,1.8278,1.8253,1.8254,1.8254,1.8275,0,1.7999,1.8034,1.8048,1.8077,1.8095,1.8106,1.8123,1.8141,1.8154,1.8172,1.8186,1.8207,1.8207,1.8216,1.8229,1.8245,1.8258,1.8244,1.827,1.8271,1.8264,1.8282,1.828,1.8299,1.8278,1.8278,1.8278,0,1.8024,1.8043,1.8074,1.8098,1.8106,1.8122,1.8145,1.8162,1.8183,1.8191,1.8207,1.8216,1.8238,1.8234,1.8265,1.8255,1.8267,1.8276,1.8277,1.828,1.8275,1.8286,1.8305,1.8307,1.8283,1.8283,1.8282,0,1.8027,1.8061,1.8084,1.8095,1.8124,1.8134,1.8147,1.8167,1.8181,1.8201,1.821,1.8233,1.8245,1.8263,1.8278,1.8273,1.8307,1.8304,1.8315,1.8314,1.8321,1.8321,1.8343,1.8329,1.8329,1.8329,1.8329,0,1.8045,1.8064,1.8086,1.8101,1.8122,1.8137,1.8158,1.8171,1.819,1.8207,1.8218,1.8234,1.8253,1.8271,1.8284,1.8307,1.8313,1.832,1.8323,1.8319,1.8318,1.8327,1.8327,1.8329,1.8329,1.8329,1.8329,0,1.8053,1.8069,1.8095,1.812,1.8127,1.8141,1.8163,1.8178,1.8191,1.8213,1.8219,1.824,1.8262,1.8279,1.8308,1.8316,1.8342,1.8345,1.8334,1.8336,1.8346,1.8344,1.8374,1.8379,1.8362,1.8362,1.8362,0,1.8063,1.8078,1.8104,1.8117,1.8129,1.8149,1.8162,1.8178,1.8192,1.8218,1.8229,1.8252,1.8272,1.8307,1.8326,1.8348,1.8352,1.8361,1.8355,1.8351,1.8352,1.8351,1.8353,1.8362,1.8362,1.8362,1.8362,0,1.808,1.8087,1.8106,1.8128,1.8144,1.8163,1.8181,1.819,1.821,1.8225,1.8248,1.8263,1.8293,1.8316,1.8341,1.8354,1.8361,1.8363,1.8367,1.8363,1.8357,1.836,1.8336,1.8363,1.8363,1.8362,1.8362,1.8362,1.8089,1.8103,1.8124,1.8145,1.816,1.8178,1.8192,1.8207,1.8227,1.8252,1.826,1.8284,1.8306,1.8339,1.8353,1.8372,1.8372,1.8378,1.8379,1.838,1.838,1.8353,1.8377,1.8377,1.8377,1.8377,1.8377,0,1.8106,1.8121,1.814,1.8165,1.8182,1.8187,1.8208,1.8222,1.8242,1.8262,1.828,1.8307,1.833,1.835,1.8373,1.8385,1.8389,1.839,1.839,1.8393,1.8378,1.8373,1.8387,1.8387,1.8387,1.8387,1.8387,1.8387,1.8117,1.8141,1.815,1.8182,1.8196,1.8219,1.823,1.8246,1.8262,1.8291,1.831,1.8322,1.8342,1.8367,1.8388,1.8394,1.8402,1.8403,1.8409,1.8395,1.8394,1.8393,1.8388,1.8404,1.8404,1.8422,1.8422,1.8422]},{"header":{"parameterUnit":"m.s-1","parameterCategory":1,"la1":30.2991,"la2":30.254,"lo1":-89.0895,"lo2":-89.0444,"dy":0.0017,"dx":0.0017,"nx":28,"ny":28,"refTime":"2024-10-13T03:00:00:Z","depth":0,"parameterNumber":3,"parameterNumberName":"V-component_of_WINDS"},"data":[0,0,0,0,0,0,0,0,0,0,0,0,0,0,0,0,0,0,0,0,0,0,0,0,0,0,0,0,0,0,0,0,0,0,0,0,0,0,0,0,0,0,0,0,0,0,0,0,0,0,0,0,0,0,0,0,0,0,1.6859,1.6859,0,1.6823,1.6822,1.6822,1.6818,1.6818,1.6819,1.6819,1.6779,1.6778,1.6777,0,0,0,0,0,0,0,0,0,0,0,0,0,1.6921,1.6919,1.6859,1.6859,1.6858,1.6823,1.6822,1.6822,1.6818,1.6818,1.6819,1.6819,1.678,1.6778,1.6777,0,0,0,0,0,0,0,0,0,0,0,0,0,1.689,1.6919,1.6859,1.6852,1.6851,1.6823,1.6822,1.6822,1.6818,1.6818,1.6819,1.682,1.678,1.6778,1.6776,1.6752,0,0,1.677,1.6769,0,0,0,0,0,0,0,0,1.6892,1.6888,1.6853,1.6852,1.6851,1.6826,1.6829,1.6798,1.6818,1.683,1.6819,1.682,1.6794,1.6791,1.6783,1.675,1.6748,1.677,1.6768,1.6768,1.6767,0,0,0,0,0,0,0,1.6894,1.6889,1.6845,1.6853,1.6852,1.6849,1.6846,1.6824,1.6809,1.6829,1.6829,1.6825,1.6794,1.6785,1.6782,1.6748,1.677,1.6768,1.6767,1.6766,1.669,1.6689,0,0,0,0,0,0,1.6898,1.6891,1.6846,1.6843,1.6873,1.6848,1.6844,1.6833,1.681,1.6807,1.6824,1.6825,1.6788,1.6784,1.678,1.6748,1.6768,1.6766,1.6764,1.6691,1.669,1.6689,0,0,0,0,0,0,1.6899,1.6894,1.6847,1.6867,1.6861,1.6846,1.6834,1.6832,1.6823,1.6806,1.6803,1.6818,1.6789,1.6783,1.6759,1.6747,1.6765,1.6763,1.6692,1.669,1.6689,1.6685,0,0,0,0,0,0,1.6901,1.6894,1.6886,1.6867,1.686,1.6827,1.6834,1.6831,1.682,1.682,1.68,1.6797,1.6789,1.6762,1.6757,1.6744,1.6761,1.6693,1.6691,1.669,1.6686,1.6684,1.6682,0,0,0,0,0,1.6903,1.6886,1.6886,1.688,1.685,1.6827,1.6822,1.6814,1.6819,1.681,1.6798,1.6797,1.6749,1.6759,1.6753,1.674,1.6693,1.6692,1.669,1.6687,1.6684,1.6682,0,0,0,0,0,0,1.6904,1.6884,1.6883,1.686,1.6845,1.6826,1.6814,1.6812,1.6795,1.6796,1.6786,1.6781,1.6756,1.6746,1.6757,1.6714,1.6722,1.6719,1.6721,1.6719,1.6717,1.6719,1.6759,0,0,0,0,0,1.6902,1.6886,1.6869,1.685,1.6843,1.683,1.6819,1.6814,1.6798,1.6792,1.6778,1.6762,1.6743,1.673,1.6712,1.6685,1.6679,1.6673,1.6671,1.6669,1.6666,1.6648,1.6645,1.6684,1.6684,1.6684,0,0,1.6897,1.6884,1.6874,1.685,1.6838,1.682,1.6824,1.6806,1.6792,1.6789,1.6764,1.6753,1.6734,1.6707,1.6695,1.6698,1.6654,1.6667,1.6666,1.6664,1.6646,1.6642,1.6639,1.6682,1.6683,1.6683,0,0,1.6878,1.6867,1.6849,1.6837,1.6818,1.681,1.6805,1.6786,1.6779,1.6754,1.675,1.6733,1.6701,1.6687,1.6675,1.6648,1.6645,1.6642,1.6631,1.6614,1.6611,1.6608,1.6596,1.6592,1.664,1.664,1.664,0,1.6874,1.6848,1.684,1.6821,1.6809,1.6806,1.6786,1.6774,1.675,1.6741,1.6745,1.6703,1.669,1.6659,1.6652,1.6644,1.6636,1.6644,1.6612,1.6609,1.6606,1.6595,1.659,1.6639,1.6639,1.664,1.664,0,1.6842,1.6824,1.6811,1.6789,1.6775,1.6756,1.6744,1.6731,1.6727,1.6717,1.669,1.6674,1.6651,1.6643,1.6639,1.661,1.6612,1.6614,1.6621,1.6602,1.6591,1.6587,1.6639,1.6639,1.6639,1.6639,0,0,1.6824,1.6796,1.6791,1.6779,1.6758,1.6743,1.6722,1.67,1.6689,1.6672,1.6653,1.6625,1.6626,1.6613,1.6606,1.6591,1.6567,1.6595,1.6594,1.6588,1.6532,1.6529,1.6524,1.6566,1.6565,1.6564,1.6532,0,1.6801,1.6766,1.6757,1.6726,1.6708,1.6703,1.6684,1.6668,1.6657,1.6639,1.6627,1.6607,1.6611,1.6602,1.6587,1.6574,1.6556,1.6576,1.6546,1.6545,1.655,1.6519,1.6517,1.6487,1.6528,1.6528,1.6527,0,1.6771,1.6753,1.672,1.6698,1.669,1.6674,1.6652,1.6635,1.6615,1.6608,1.6593,1.6587,1.6563,1.6572,1.6537,1.6551,1.6538,1.6529,1.6528,1.6524,1.6534,1.6512,1.6478,1.6473,1.6521,1.6521,1.6522,0,1.6758,1.6726,1.6702,1.6692,1.6667,1.6655,1.6644,1.6625,1.6611,1.6591,1.6581,1.6559,1.6546,1.6527,1.6515,1.6523,1.648,1.6489,1.6472,1.6472,1.6463,1.6463,1.6424,1.6457,1.6457,1.6457,1.6457,0,1.6733,1.6713,1.6695,1.668,1.6656,1.6645,1.6621,1.6609,1.6592,1.6573,1.6567,1.6549,1.6534,1.6513,1.6503,1.6474,1.6469,1.6461,1.6458,1.6461,1.6461,1.6451,1.6452,1.6456,1.6456,1.6456,1.6457,0,1.6716,1.6703,1.6676,1.6653,1.6647,1.663,1.661,1.6594,1.6583,1.6558,1.6552,1.6534,1.6508,1.6494,1.6463,1.6456,1.6423,1.6422,1.643,1.6428,1.6411,1.6412,1.6363,1.6355,1.6395,1.6394,1.6394,0,1.67,1.6684,1.6659,1.6646,1.6635,1.6614,1.66,1.6588,1.6573,1.6547,1.6533,1.6508,1.6487,1.6446,1.6429,1.6404,1.6401,1.6386,1.6398,1.6399,1.6398,1.6399,1.6396,1.6384,1.6383,1.6383,1.6383,0,1.6673,1.6667,1.6647,1.6624,1.6607,1.6589,1.657,1.6559,1.6544,1.6527,1.6501,1.6484,1.6451,1.6425,1.6398,1.6384,1.638,1.6379,1.6373,1.6375,1.6379,1.6374,1.6422,1.638,1.638,1.6381,1.6381,1.6381,1.6654,1.6639,1.6618,1.6595,1.658,1.6562,1.6545,1.6531,1.651,1.6482,1.6476,1.6448,1.6425,1.6389,1.6374,1.6351,1.6353,1.6346,1.6343,1.6341,1.6339,1.6384,1.6346,1.6346,1.6346,1.6346,1.6346,0,1.6625,1.6611,1.659,1.6564,1.6545,1.6543,1.6522,1.6506,1.6482,1.6462,1.644,1.6409,1.6383,1.6363,1.6335,1.632,1.6317,1.6313,1.6313,1.6309,1.634,1.6347,1.6316,1.6316,1.6316,1.6316,1.6316,1.6316,1.6607,1.658,1.6571,1.6535,1.6521,1.6494,1.6481,1.6464,1.6447,1.6413,1.6391,1.6378,1.6357,1.6328,1.6303,1.6297,1.6286,1.6282,1.6276,1.6305,1.6308,1.6311,1.6317,1.6281,1.628,1.6248,1.6247,1.6247]}]]